Location: Misciano
(43.5000°N, 11.9500°E)
Time: 15:41:28
(UTC+00:00)

Cosmos 1238 Rocket - Pass Details

Date: 13 August 2020
Orbit: 375 x 1027 km, 82.9° (Epoch: 19 September)

Event Time Altitude Azimuth Distance (km) Brightness Sun altitude
Exits shadow 20:44:57 24° 262° (W) 840 4.0 -22.6°
Maximum altitude 20:45:33 26° 283° (WNW) 794 4.1 -22.6°
Drops below altitude 10° 20:48:07 10° 343° (NNW) 1,404 5.8 -22.9°
Sets 20:50:20 0° 357° (N) 2,293 6.8 -23.2°
